period_start,C,m1,H,J0,J1,J2,J3,J4,J5,JA,JB,JC,JD,JJ,JK,JN,#
2018-05-17 00:02:46,0.05,1.16,0.00,24.69,27.20,29.97,13.88,47.43,1021.11,2026.02,2953.54,2796.64,3147.38,600.24,595.48,30.59,0000 0000 0000 0000 000000
2018-05-17 00:07:47,0.08,1.17,0.00,24.70,27.21,29.99,13.82,47.43,1021.05,2026.05,2951.89,2795.67,3146.30,599.93,595.15,30.64,0000 0000 0000 0000 000000
2018-05-17 00:12:48,0.08,1.17,0.00,24.75,27.23,30.02,13.83,47.38,1021.04,2026.01,2950.00,2794.52,3144.91,599.94,595.06,30.69,0000 0000 0000 0000 000000
2018-05-17 00:17:50,0.11,1.18,0.00,24.79,27.25,30.04,13.87,47.49,1021.03,2026.00,2947.62,2793.08,3143.25,600.18,595.17,30.74,0000 0000 0000 0000 000000
2018-05-17 00:22:51,0.12,1.18,0.00,24.79,27.27,30.05,13.80,47.30,1021.02,2026.00,2945.25,2791.68,3141.56,600.00,595.12,30.79,0000 0000 0000 0000 000000
2018-05-17 00:27:53,0.10,1.19,0.00,24.87,27.29,30.08,13.82,47.33,1021.04,2026.00,2943.20,2790.37,3139.94,599.89,594.77,30.84,0000 0000 0000 0000 000000
2018-05-17 00:32:54,0.09,1.19,0.00,24.88,27.31,30.09,13.99,47.57,1021.04,2025.99,2941.18,2789.10,3138.43,600.34,595.21,30.89,0000 0000 0000 0000 000000
2018-05-17 00:37:55,0.07,1.20,0.00,24.90,27.33,30.12,13.88,47.42,1021.04,2025.98,2939.65,2788.13,3137.32,600.00,594.80,30.94,0000 0000 0000 0000 000000
2018-05-17 00:42:57,0.07,1.20,0.00,24.98,27.36,30.15,13.82,47.52,1021.11,2025.97,2938.24,2787.31,3136.32,599.92,594.46,30.99,0000 0000 0000 0000 000000
2018-05-17 00:47:58,0.05,1.20,0.00,24.99,27.38,30.17,13.81,47.42,1021.17,2025.89,2936.90,2786.55,3135.28,599.86,594.60,31.04,0000 0000 0000 0000 000000
2018-05-17 00:53:00,0.04,1.21,0.00,25.03,27.40,30.19,13.83,47.42,1021.21,2025.57,2935.27,2785.53,3134.27,599.80,594.46,31.09,0000 0000 0000 0000 000000
2018-05-17 00:58:01,0.05,1.21,0.00,25.10,27.43,30.21,13.81,47.40,1021.16,2025.13,2933.41,2784.42,3132.83,599.96,594.51,31.14,0000 0000 0000 0000 000000
2018-05-17 01:03:02,0.09,1.21,0.00,25.11,27.46,30.24,13.74,47.43,1021.20,2025.04,2931.26,2783.19,3131.34,599.83,594.27,31.19,0000 0000 0000 0000 000000
2018-05-17 01:08:04,0.10,1.22,0.00,25.16,27.48,30.27,13.83,47.42,1021.23,2025.00,2929.23,2781.82,3129.82,600.18,594.58,31.24,0000 0000 0000 0000 000000
2018-05-17 01:13:05,0.09,1.22,0.00,25.20,27.51,30.29,13.87,47.39,1021.24,2025.00,2927.47,2780.67,3128.49,600.18,594.58,31.29,0000 0000 0000 0000 000000
2018-05-17 01:18:06,0.04,1.23,0.00,25.22,27.54,30.34,13.86,47.27,1021.21,2025.00,2926.11,2779.99,3127.53,600.22,594.53,31.34,0000 0000 0000 0000 000000
2018-05-17 01:23:08,0.05,1.23,0.00,25.27,27.56,30.35,13.79,47.47,1021.22,2024.98,2925.27,2779.21,3126.67,600.16,594.33,31.39,0000 0000 0000 0000 000000
2018-05-17 01:28:09,0.05,1.23,0.00,25.31,27.59,30.38,13.84,47.42,1021.12,2024.90,2924.09,2778.49,3125.69,600.00,594.04,31.44,0000 0000 0000 0000 000000
2018-05-17 01:33:10,0.00,1.23,0.00,25.31,27.62,30.42,13.85,47.42,1021.11,2024.57,2922.96,2777.84,3124.79,600.26,594.26,31.49,0000 0000 0000 0000 000000
2018-05-17 01:38:12,0.04,1.23,0.00,25.36,27.65,30.45,13.81,47.27,1021.29,2024.14,2921.64,2776.96,3123.72,600.01,594.03,31.54,0000 0000 0000 0000 000000
2018-05-17 01:43:13,0.06,1.24,0.00,25.39,27.68,30.47,13.85,47.39,1021.39,2024.02,2920.28,2776.00,3122.64,599.99,594.01,31.59,0000 0000 0000 0000 000000
2018-05-17 01:48:14,0.08,1.24,0.00,25.41,27.71,30.51,13.83,47.38,1021.47,2024.00,2918.80,2774.98,3121.41,600.30,594.34,31.64,0000 0000 0000 0000 000000
2018-05-17 01:53:16,0.07,1.25,0.00,25.47,27.74,30.54,13.79,47.31,1021.45,2024.00,2917.40,2774.05,3120.29,599.50,593.38,31.69,0000 0000 0000 0000 000000
2018-05-17 01:58:17,0.06,1.25,0.00,25.50,27.77,30.56,13.84,47.39,1021.43,2024.00,2916.23,2773.20,3119.34,599.77,593.62,31.74,0000 0000 0000 0000 000000
2018-05-17 02:03:18,0.06,1.25,0.00,25.53,27.81,30.60,13.80,47.36,1021.44,2023.96,2914.98,2772.35,3118.31,599.84,593.64,31.79,0000 0000 0000 0000 000000
2018-05-17 02:08:20,0.05,1.25,0.00,25.59,27.84,30.63,13.81,47.33,1021.41,2023.77,2913.72,2771.63,3117.39,600.07,593.75,31.84,0000 0000 0000 0000 000000
2018-05-17 02:13:21,0.01,1.26,0.00,25.60,27.87,30.67,13.81,47.37,1021.45,2023.38,2912.50,2770.87,3116.40,600.07,593.73,31.89,0000 0000 0000 0000 000000
2018-05-17 02:18:22,0.02,1.26,0.00,25.63,27.90,30.70,13.76,47.36,1021.44,2023.05,2911.71,2770.06,3115.59,599.97,593.57,31.94,0000 0000 0000 0000 000000
2018-05-17 02:23:24,0.05,1.26,0.00,25.69,27.93,30.73,13.87,47.33,1021.44,2023.00,2910.70,2769.62,3114.87,600.24,593.83,31.99,0000 0000 0000 0000 000000
2018-05-17 02:28:25,0.03,1.26,0.00,25.71,27.97,30.75,13.82,47.33,1021.48,2023.00,2909.75,2769.00,3114.05,599.91,593.51,32.04,0000 0000 0000 0000 000000
2018-05-17 02:33:26,0.05,1.26,0.00,25.75,28.00,30.78,13.81,47.30,1021.49,2022.99,2908.97,2768.25,3113.26,599.89,593.20,32.09,0000 0000 0000 0000 000000
2018-05-17 02:38:27,0.03,1.27,0.00,25.79,28.03,30.81,13.79,47.23,1021.49,2022.96,2908.08,2767.92,3112.67,600.07,593.38,32.14,0000 0000 0000 0000 000000
2018-05-17 02:43:29,0.01,1.27,0.00,25.79,28.07,30.86,13.80,47.33,1021.49,2022.65,2907.20,2767.09,3111.85,599.97,593.27,32.19,0000 0000 0000 0000 000000
2018-05-17 02:48:30,0.01,1.27,0.00,25.86,28.10,30.89,13.78,47.33,1021.49,2022.12,2906.39,2766.55,3111.06,599.98,593.18,32.24,0000 0000 0000 0000 000000
2018-05-17 02:53:31,0.03,1.27,0.00,25.91,28.14,30.92,13.79,47.28,1021.49,2022.00,2905.61,2766.00,3110.24,600.30,593.39,32.29,0000 0000 0000 0000 000000
2018-05-17 02:58:33,0.04,1.27,0.00,25.92,28.17,30.95,13.87,47.35,1021.50,2022.00,2904.90,2765.47,3109.72,600.04,593.09,32.35,0000 0000 0000 0000 000000
2018-05-17 03:03:34,0.03,1.27,0.00,25.96,28.20,30.99,13.79,47.41,1021.50,2022.00,2903.96,2764.96,3109.01,600.13,593.11,32.40,0000 0000 0000 0000 000000
2018-05-17 03:08:35,0.05,1.28,0.00,26.01,28.23,31.03,13.67,47.25,1021.50,2022.00,2903.12,2764.19,3108.24,599.55,592.45,32.45,0000 0000 0000 0000 000000
2018-05-17 03:13:36,0.04,1.28,0.00,26.02,28.26,31.06,13.70,47.39,1021.50,2021.93,2902.19,2763.67,3107.42,599.77,592.75,32.50,0000 0000 0000 0000 000000
2018-05-17 03:18:37,-0.01,1.28,0.00,26.05,28.30,31.09,13.81,47.33,1021.49,2021.48,2901.13,2762.99,3106.51,600.20,592.99,32.55,0000 0000 0000 0000 000000
2018-05-17 03:23:39,0.03,1.28,0.00,26.10,28.33,31.12,13.76,47.27,1021.50,2021.12,2900.15,2762.15,3105.79,600.25,592.94,32.60,0000 0000 0000 0000 000000
2018-05-17 03:28:40,0.02,1.28,0.00,26.11,28.36,31.16,13.79,47.31,1021.50,2021.01,2899.67,2761.87,3105.03,600.21,592.90,32.65,0000 0000 0000 0000 000000
2018-05-17 03:33:41,0.06,1.28,0.00,26.13,28.40,31.20,13.66,47.27,1021.50,2021.00,2898.62,2761.08,3104.29,600.03,592.72,32.70,0000 0000 0000 0000 000000
2018-05-17 03:38:42,0.03,1.28,0.00,26.18,28.43,31.22,13.78,47.33,1021.50,2020.99,2897.97,2760.62,3103.72,599.91,592.45,32.75,0000 0000 0000 0000 000000
2018-05-17 03:43:44,0.03,1.29,0.00,26.21,28.46,31.26,13.76,47.20,1021.49,2020.98,2897.10,2760.02,3103.00,599.79,592.32,32.80,0000 0000 0000 0000 000000
2018-05-17 03:48:45,0.04,1.29,0.00,26.22,28.50,31.29,13.78,47.27,1021.49,2020.86,2896.38,2759.55,3102.20,600.01,592.49,32.85,0000 0000 0000 0000 000000
2018-05-17 03:53:46,-0.03,1.29,0.00,26.30,28.53,31.32,13.79,47.38,1021.50,2020.33,2895.76,2758.99,3101.62,600.21,592.44,32.90,0000 0000 0000 0000 000000
2018-05-17 03:58:47,0.03,1.29,0.00,26.34,28.56,31.35,13.73,47.32,1021.50,2020.03,2894.90,2758.26,3100.99,599.89,592.16,32.95,0000 0000 0000 0000 000000
2018-05-17 04:03:49,0.04,1.29,0.00,26.30,28.60,31.39,13.73,47.33,1021.50,2020.00,2894.03,2757.88,3100.16,600.07,592.24,33.00,0000 0000 0000 0000 000000
2018-05-17 06:42:17,0.00,0.00,0.00,22.32,25.50,23.23,13.49,45.76,1020.91,2035.81,3467.17,3103.75,3574.38,585.70,585.74,0.01,0000 0000 0000 0000 000000
2018-05-17 06:47:18,0.00,0.00,0.00,22.57,25.28,24.45,13.81,46.27,1021.03,2033.94,3459.94,3099.13,3570.11,600.06,599.62,0.06,0000 0000 0000 0000 000000
2018-05-17 06:52:19,0.00,0.00,0.00,22.86,25.09,25.16,13.78,46.03,1021.32,2034.01,3459.04,3099.01,3569.98,599.44,598.54,0.11,0000 0000 0000 0000 000000
2018-05-17 06:57:20,0.02,0.00,0.00,23.06,24.95,25.73,13.80,46.02,1021.50,2034.69,3458.99,3099.22,3569.99,600.44,599.11,0.16,0000 0000 0000 0000 000000
2018-05-17 07:02:22,0.01,0.00,0.00,23.05,24.86,26.21,13.85,45.91,1021.50,2035.00,3458.96,3099.83,3569.99,600.36,599.15,0.21,0000 0000 0000 0000 000000
2018-05-17 07:07:23,0.04,0.01,0.00,23.15,24.80,26.67,13.75,45.81,1021.54,2035.48,3458.43,3099.98,3569.99,599.73,598.32,0.26,0000 0000 0000 0000 000000
2018-05-17 07:12:24,0.05,0.01,0.00,23.36,24.77,26.95,13.75,45.79,1021.84,2035.96,3458.00,3099.77,3569.82,599.62,597.85,0.31,0000 0000 0000 0000 000000
2018-05-17 07:17:26,0.03,0.01,0.00,23.48,24.78,27.13,13.84,45.88,1021.97,2035.99,3457.50,3099.16,3569.08,599.74,597.93,0.36,0000 0000 0000 0000 000000
2018-05-17 07:22:27,0.01,0.01,0.00,23.68,24.82,27.29,13.82,45.61,1021.99,2035.99,3456.93,3099.00,3568.80,599.79,597.57,0.41,0000 0000 0000 0000 000000
2018-05-17 07:27:28,0.04,0.01,0.00,23.90,24.88,27.53,13.83,45.67,1022.00,2035.99,3456.07,3098.36,3567.97,600.10,597.39,0.46,0000 0000 0000 0000 000000
2018-05-17 07:32:30,0.04,0.02,0.00,24.09,24.96,27.82,13.74,45.58,1022.01,2035.99,3455.10,3097.74,3566.91,599.91,596.92,0.51,0000 0000 0000 0000 000000
2018-05-17 07:37:31,0.04,0.02,0.00,24.31,25.06,28.11,13.88,45.52,1022.04,2035.97,3454.05,3096.94,3565.86,600.17,596.73,0.56,0000 0000 0000 0000 000000
2018-05-17 07:42:32,0.02,0.02,0.00,24.53,25.18,28.49,13.80,45.45,1022.30,2035.61,3452.65,3095.99,3564.57,599.90,596.22,0.61,0000 0000 0000 0000 000000
2018-05-17 07:47:33,0.04,0.02,0.00,24.71,25.32,28.75,13.84,45.43,1022.42,2035.04,3451.19,3094.79,3563.05,600.25,596.32,0.66,0000 0000 0000 0000 000000
2018-05-17 07:52:35,0.06,0.02,0.00,24.93,25.46,29.02,13.69,45.32,1022.45,2034.86,3449.56,3093.56,3561.30,599.74,595.26,0.71,0000 0000 0000 0000 000000
2018-05-17 07:57:36,0.02,0.03,0.00,25.07,25.61,29.27,13.81,45.33,1022.48,2034.13,3447.78,3092.29,3559.55,600.11,595.29,0.76,0000 0000 0000 0000 000000
2018-05-17 08:02:37,0.07,0.03,0.00,25.14,25.77,29.50,13.81,45.33,1022.48,2033.93,3446.03,3090.91,3557.79,599.92,595.04,0.81,0000 0000 0000 0000 000000
2018-05-17 08:07:38,0.01,0.03,0.00,25.18,25.92,29.52,13.89,45.49,1022.48,2033.14,3444.19,3089.51,3555.95,600.35,595.43,0.86,0000 0000 0000 0000 000000
2018-05-17 08:12:39,0.05,0.03,0.00,25.15,26.06,29.43,13.82,45.43,1022.50,2032.85,3442.51,3088.28,3554.31,600.04,595.18,0.91,0000 0000 0000 0000 000000
2018-05-17 08:17:40,0.00,0.03,0.00,25.09,26.19,29.42,13.78,45.27,1022.63,2032.08,3440.96,3087.07,3552.71,600.05,595.47,0.96,0000 0000 0000 0000 000000
2018-05-17 08:22:42,0.07,0.04,0.00,25.08,26.31,29.49,13.84,45.25,1022.88,2031.98,3439.41,3085.84,3551.26,600.25,595.82,1.01,0000 0000 0000 0000 000000
2018-05-17 08:27:43,0.00,0.04,0.00,25.11,26.43,29.59,13.79,45.18,1022.95,2031.35,3437.81,3084.73,3549.70,600.07,595.54,1.06,0000 0000 0000 0000 000000
2018-05-17 08:32:45,0.05,0.04,0.00,25.08,26.53,29.69,13.78,45.13,1022.95,2031.00,3436.45,3083.67,3548.37,599.88,595.50,1.11,0000 0000 0000 0000 000000
2018-05-17 08:37:46,0.00,0.04,0.00,25.11,26.62,29.78,13.83,45.16,1022.95,2030.60,3434.96,3082.60,3546.91,599.84,595.39,1.16,0000 0000 0000 0000 000000
2018-05-17 08:42:48,0.04,0.04,0.00,25.12,26.71,29.87,13.86,45.20,1022.96,2030.02,3433.61,3081.52,3545.59,600.35,595.81,1.21,0000 0000 0000 0000 000000
2018-05-17 08:47:49,0.05,0.04,0.00,25.12,26.79,29.94,13.78,45.16,1022.96,2029.97,3432.31,3080.56,3544.38,599.42,594.94,1.27,0000 0000 0000 0000 000000
2018-05-17 08:52:50,-0.01,0.05,0.00,25.12,26.87,29.99,13.85,45.18,1022.96,2029.40,3430.89,3079.55,3543.05,600.39,595.81,1.32,0000 0000 0000 0000 000000
2018-05-17 08:57:52,0.05,0.05,0.00,25.13,26.94,30.02,13.80,45.23,1022.96,2029.01,3429.54,3078.53,3541.72,599.93,595.40,1.37,0000 0000 0000 0000 000000
2018-05-17 09:02:53,0.06,0.05,0.00,25.17,27.01,30.07,13.80,45.23,1022.96,2028.99,3428.18,3077.59,3540.58,600.07,595.47,1.42,0000 0000 0000 0000 000000
2018-05-17 09:07:54,0.01,0.05,0.00,25.20,27.07,30.10,13.82,45.17,1022.96,2028.57,3426.76,3076.58,3539.29,599.94,595.30,1.47,0000 0000 0000 0000 000000
2018-05-17 09:12:56,0.02,0.05,0.00,25.21,27.13,30.14,13.80,45.18,1022.96,2028.04,3425.51,3075.68,3538.01,599.94,595.23,1.52,0000 0000 0000 0000 000000
2018-05-17 09:17:57,0.04,0.06,0.00,25.23,27.19,30.19,13.76,45.22,1022.96,2028.00,3424.31,3074.84,3536.90,600.10,595.47,1.57,0000 0000 0000 0000 000000
2018-05-17 09:22:58,0.07,0.06,0.00,25.23,27.24,30.23,13.89,45.17,1022.96,2027.98,3422.84,3073.85,3535.67,600.38,595.64,1.62,0000 0000 0000 0000 000000
2018-05-17 09:28:00,0.01,0.06,0.00,25.25,27.29,30.26,13.86,45.22,1022.96,2027.39,3421.00,3072.70,3534.13,599.90,595.06,1.67,0000 0000 0000 0000 000000
2018-05-17 09:33:01,0.10,0.06,0.00,25.28,27.34,30.31,13.77,45.14,1022.97,2027.03,3417.96,3071.15,3532.16,599.68,594.81,1.72,0000 0000 0000 0000 000000
2018-05-17 09:38:02,0.09,0.07,0.00,25.28,27.39,30.33,13.79,45.23,1022.97,2027.00,3415.78,3069.74,3530.49,599.16,594.34,1.77,0000 0000 0000 0000 000000
2018-05-17 09:43:03,0.10,0.07,0.00,25.34,27.44,30.37,13.79,45.23,1022.97,2026.98,3413.38,3068.23,3528.54,599.72,594.78,1.82,0000 0000 0000 0000 000000
2018-05-17 09:48:04,0.04,0.08,0.00,25.39,27.48,30.41,13.80,45.09,1022.98,2026.76,3411.39,3066.94,3526.82,600.04,594.96,1.87,0000 0000 0000 0000 000000
2018-05-17 09:53:06,0.01,0.08,0.00,25.40,27.52,30.43,13.81,45.09,1022.98,2026.25,3410.03,3065.94,3525.62,600.51,595.31,1.92,0000 0000 0000 0000 000000
2018-05-17 09:58:07,0.06,0.08,0.00,25.47,27.56,30.47,13.89,45.16,1022.98,2026.02,3408.30,3064.83,3524.22,600.43,595.24,1.97,0000 0000 0000 0000 000000
2018-05-17 10:03:09,0.09,0.08,0.00,25.50,27.61,30.50,13.75,45.26,1022.98,2026.00,3406.13,3063.60,3522.60,599.36,594.12,2.02,0000 0000 0000 0000 000000
2018-05-17 10:08:10,0.06,0.09,0.00,25.50,27.65,30.54,13.81,45.02,1022.98,2025.98,3404.50,3062.54,3521.22,599.77,594.65,2.07,0000 0000 0000 0000 000000
2018-05-17 10:13:11,0.04,0.09,0.00,25.55,27.69,30.58,13.78,45.15,1022.98,2025.95,3403.25,3061.78,3520.14,599.98,594.57,2.12,0000 0000 0000 0000 000000
2018-05-17 10:18:12,-0.01,0.09,0.00,25.57,27.73,30.62,13.85,45.19,1022.98,2025.43,3402.03,3060.89,3519.08,600.09,594.82,2.17,0000 0000 0000 0000 000000
2018-05-17 10:23:14,0.03,0.09,0.00,25.56,27.77,30.66,13.80,45.16,1022.99,2025.03,3400.77,3060.04,3518.02,599.86,594.59,2.22,0000 0000 0000 0000 000000
2018-05-17 10:28:15,0.05,0.10,0.00,25.61,27.81,30.70,13.78,45.14,1022.98,2025.00,3399.65,3059.21,3516.96,599.35,593.83,2.27,0000 0000 0000 0000 000000
2018-05-17 10:33:16,0.05,0.10,0.00,25.60,27.85,30.75,13.83,45.14,1022.98,2025.00,3398.47,3058.41,3515.89,600.36,594.90,2.32,0000 0000 0000 0000 000000
2018-05-17 10:38:18,0.05,0.10,0.00,25.58,27.89,30.78,13.82,45.06,1022.98,2024.99,3397.17,3057.57,3514.66,600.05,594.63,2.37,0000 0000 0000 0000 000000
2018-05-17 10:43:19,0.04,0.10,0.00,25.62,27.92,30.82,13.76,45.08,1022.99,2024.86,3395.80,3056.71,3513.45,599.80,594.41,2.42,0000 0000 0000 0000 000000
2018-05-17 10:48:20,-0.01,0.11,0.00,25.62,27.96,30.87,13.70,45.26,1022.99,2024.27,3394.45,3055.81,3512.19,599.55,593.99,2.47,0000 0000 0000 0000 000000
2018-05-17 10:53:22,0.04,0.11,0.00,25.61,27.99,30.90,13.78,45.11,1022.98,2024.02,3393.14,3054.88,3510.96,599.78,594.32,2.52,0000 0000 0000 0000 000000
2018-05-17 10:58:24,0.08,0.11,0.00,25.64,28.02,30.92,13.77,45.14,1022.97,2024.00,3391.60,3053.81,3509.58,599.89,594.32,2.57,0000 0000 0000 0000 000000
2018-05-17 11:03:25,0.08,0.11,0.00,25.62,28.05,30.96,13.75,45.06,1022.96,2024.00,3389.95,3052.55,3507.97,600.09,594.58,2.62,0000 0000 0000 0000 000000
2018-05-17 11:08:26,0.18,0.12,0.00,25.62,28.08,30.98,13.83,45.21,1022.96,2024.00,3386.50,3050.19,3505.13,600.09,594.62,2.67,0000 0000 0000 0000 000000
2018-05-17 11:13:27,0.30,0.14,0.00,25.64,28.11,31.00,13.75,45.10,1022.96,2023.99,3380.20,3045.71,3499.98,599.83,594.33,2.72,0000 0000 0000 0000 000000
2018-05-17 11:18:28,0.21,0.15,0.00,25.64,28.13,31.02,13.76,45.06,1022.96,2023.96,3374.92,3042.15,3495.86,599.75,594.31,2.77,0000 0000 0000 0000 000000
2018-05-17 11:23:30,0.13,0.16,0.00,25.61,28.15,31.04,13.90,45.22,1022.96,2023.83,3371.34,3039.90,3493.10,600.00,594.47,2.82,0000 0000 0000 0000 000000
2018-05-17 11:28:31,0.06,0.16,0.00,25.62,28.17,31.07,13.76,45.17,1022.96,2023.40,3368.78,3038.16,3491.09,599.87,594.34,2.87,0000 0000 0000 0000 000000
2018-05-17 11:33:32,0.04,0.16,0.00,25.62,28.18,31.08,13.85,45.20,1022.96,2023.11,3367.27,3037.10,3489.82,599.88,594.33,2.92,0000 0000 0000 0000 000000
2018-05-17 11:38:33,0.05,0.17,0.00,25.58,28.20,31.09,13.77,45.29,1022.96,2023.05,3366.12,3036.38,3488.80,599.72,594.44,2.97,0000 0000 0000 0000 000000
2018-05-17 11:43:34,0.04,0.17,0.00,25.60,28.22,31.11,13.78,45.06,1022.96,2023.01,3365.03,3035.76,3487.83,599.58,594.25,3.02,0000 0000 0000 0000 000000
2018-05-17 11:48:36,0.03,0.17,0.00,25.59,28.22,31.12,13.79,45.11,1022.96,2023.00,3364.01,3035.02,3486.91,600.22,594.67,3.07,0000 0000 0000 0000 000000
2018-05-17 11:53:37,0.05,0.17,0.00,25.54,28.25,31.14,13.81,45.13,1022.88,2023.00,3363.06,3034.40,3486.03,599.95,594.46,3.12,0000 0000 0000 0000 000000
2018-05-17 11:58:39,0.06,0.17,0.00,25.54,28.25,31.15,13.79,45.02,1022.62,2023.00,3361.85,3033.62,3484.99,600.05,594.51,3.17,0000 0000 0000 0000 000000
2018-05-17 12:03:40,0.07,0.18,0.00,25.51,28.26,31.15,13.84,45.20,1022.54,2022.98,3360.32,3032.59,3483.73,600.26,594.81,3.22,0000 0000 0000 0000 000000
2018-05-17 12:08:41,0.11,0.18,0.00,25.50,28.27,31.18,13.87,45.17,1022.51,2022.93,3357.88,3031.05,3481.91,599.81,594.30,3.27,0000 0000 0000 0000 000000
2018-05-17 12:13:43,0.15,0.19,0.00,25.52,28.27,31.16,13.84,45.12,1022.49,2022.93,3354.34,3028.75,3479.27,600.33,594.72,3.32,0000 0000 0000 0000 000000
2018-05-17 12:18:44,0.08,0.20,0.00,25.48,28.27,31.15,13.78,45.24,1022.48,2022.91,3352.07,3027.42,3477.60,599.73,594.21,3.37,0000 0000 0000 0000 000000
2018-05-17 12:23:45,0.06,0.20,0.00,25.47,28.27,31.15,13.78,45.26,1022.48,2022.94,3350.50,3026.42,3476.44,599.75,594.38,3.42,0000 0000 0000 0000 000000
2018-05-17 12:28:47,0.04,0.20,0.00,25.47,28.27,31.17,13.74,45.17,1022.48,2022.94,3349.22,3025.82,3475.51,599.84,594.47,3.47,0000 0000 0000 0000 000000
2018-05-17 12:33:48,0.03,0.21,0.00,25.46,28.27,31.15,13.85,45.37,1022.48,2022.87,3348.12,3025.05,3474.73,599.92,594.45,3.52,0000 0000 0000 0000 000000
2018-05-17 12:38:49,0.04,0.21,0.00,25.41,28.27,31.13,13.82,45.28,1022.48,2022.92,3347.19,3024.73,3474.03,600.06,594.70,3.58,0000 0000 0000 0000 000000
2018-05-17 12:43:51,0.03,0.21,0.00,25.38,28.27,31.13,13.78,45.27,1022.48,2022.86,3346.26,3024.03,3473.21,600.24,594.88,3.63,0000 0000 0000 0000 000000
2018-05-17 12:48:52,0.04,0.21,0.00,25.35,28.27,31.12,13.77,45.23,1022.48,2022.73,3345.32,3023.51,3472.43,599.80,594.49,3.68,0000 0000 0000 0000 000000
2018-05-17 12:53:54,0.03,0.21,0.00,25.34,28.27,31.10,13.88,45.27,1022.48,2022.86,3344.62,3023.01,3471.94,600.31,595.07,3.73,0000 0000 0000 0000 000000
2018-05-17 12:58:55,0.03,0.21,0.00,25.32,28.27,31.12,13.82,45.40,1022.48,2022.89,3343.98,3022.81,3471.14,599.79,594.75,3.78,0000 0000 0000 0000 000000
2018-05-17 13:03:56,0.04,0.22,0.00,25.28,28.27,31.08,13.86,45.38,1022.48,2022.96,3343.15,3022.12,3470.86,600.30,595.19,3.83,0000 0000 0000 0000 000000
2018-05-17 13:08:58,0.02,0.22,0.00,25.26,28.25,31.09,13.92,45.37,1022.46,2022.98,3342.62,3021.97,3470.08,600.08,595.05,3.88,0000 0000 0000 0000 000000
2018-05-17 13:13:59,0.03,0.22,0.00,25.23,28.25,31.08,13.87,45.35,1022.45,2022.96,3341.95,3021.49,3469.67,600.28,595.17,3.93,0000 0000 0000 0000 000000
2018-05-17 13:19:00,0.02,0.22,0.00,25.20,28.25,31.05,13.91,45.51,1022.47,2022.97,3341.14,3021.02,3469.02,599.95,595.05,3.98,0000 0000 0000 0000 000000
2018-05-17 13:24:01,0.03,0.22,0.00,25.18,28.23,31.05,13.88,45.42,1022.46,2022.97,3340.52,3020.91,3468.45,600.07,595.15,4.03,0000 0000 0000 0000 000000
2018-05-17 13:29:02,0.02,0.22,0.00,25.16,28.22,31.06,13.94,45.48,1022.47,2022.98,3339.98,3020.20,3468.00,600.34,595.50,4.08,0000 0000 0000 0000 000000
2018-05-17 13:34:04,0.02,0.23,0.00,25.14,28.21,31.05,13.81,45.21,1022.43,2022.97,3339.26,3020.00,3467.58,599.83,595.07,4.13,0000 0000 0000 0000 000000
2018-05-17 13:39:05,0.00,0.23,0.00,25.10,28.20,31.04,13.87,45.29,1022.36,2022.99,3338.92,3019.96,3467.03,600.00,595.27,4.18,0000 0000 0000 0000 000000
2018-05-17 13:44:06,0.03,0.23,0.00,25.07,28.18,31.02,13.87,45.16,1022.33,2022.99,3338.13,3019.29,3466.83,600.24,595.45,4.23,0000 0000 0000 0000 000000
2018-05-17 13:49:07,0.02,0.23,0.00,25.06,28.17,31.02,13.79,45.29,1022.38,2022.99,3337.75,3019.01,3466.10,599.83,595.13,4.28,0000 0000 0000 0000 000000
2018-05-17 13:54:09,0.01,0.23,0.00,25.04,28.16,30.97,13.88,45.48,1022.34,2022.99,3337.04,3018.94,3465.90,599.89,595.09,4.33,0000 0000 0000 0000 000000
2018-05-17 13:59:10,0.04,0.23,0.00,25.01,28.14,31.03,13.86,45.38,1022.27,2022.99,3336.53,3018.39,3465.23,600.01,595.29,4.38,0000 0000 0000 0000 000000
2018-05-17 14:04:11,0.01,0.23,0.00,24.99,28.12,31.03,13.87,45.37,1022.05,2023.00,3336.00,3018.02,3465.00,599.93,595.24,4.43,0000 0000 0000 0000 000000
2018-05-17 14:09:13,0.02,0.23,0.00,24.97,28.11,30.95,13.86,45.40,1022.03,2023.02,3335.37,3017.98,3464.56,599.82,595.13,4.48,0000 0000 0000 0000 000000
2018-05-17 14:14:14,0.01,0.23,0.00,24.93,28.09,30.94,13.90,45.35,1022.00,2023.05,3334.95,3017.77,3464.02,599.88,595.33,4.53,0000 0000 0000 0000 000000
2018-05-17 14:19:16,0.04,0.24,0.00,24.91,28.07,30.96,13.87,45.45,1022.00,2023.12,3334.16,3017.09,3463.92,599.81,595.15,4.58,0000 0000 0000 0000 000000
2018-05-17 14:24:17,0.05,0.24,0.00,24.90,28.05,30.91,13.87,45.35,1021.99,2023.47,3333.88,3017.00,3463.28,599.83,595.18,4.63,0000 0000 0000 0000 000000
2018-05-17 14:29:18,0.03,0.24,0.00,24.86,28.03,30.91,13.84,45.46,1021.99,2023.77,3333.09,3016.97,3463.01,600.02,595.38,4.68,0000 0000 0000 0000 000000
2018-05-17 14:34:19,0.04,0.24,0.00,24.83,28.01,30.92,13.84,45.43,1021.99,2023.93,3332.71,3016.44,3462.67,600.16,595.65,4.73,0000 0000 0000 0000 000000
2018-05-17 14:39:21,0.02,0.25,0.00,24.81,27.99,30.95,13.94,45.46,1021.99,2023.96,3332.04,3016.01,3462.05,600.08,595.71,4.78,0000 0000 0000 0000 000000
2018-05-17 14:44:22,0.01,0.25,0.00,24.80,27.97,30.91,13.94,45.57,1021.99,2023.98,3331.71,3016.00,3461.98,600.23,595.79,4.83,0000 0000 0000 0000 000000
2018-05-17 14:49:23,0.01,0.25,0.00,24.79,27.95,30.97,13.94,45.50,1021.99,2023.99,3331.04,3015.97,3461.50,600.28,595.84,4.88,0000 0000 0000 0000 000000
2018-05-17 14:54:25,0.03,0.25,0.00,24.72,27.93,30.94,13.94,45.37,1021.99,2023.99,3330.70,3015.37,3461.02,600.17,595.89,4.93,0000 0000 0000 0000 000000
2018-05-17 14:59:26,0.01,0.25,0.00,24.71,27.91,30.92,13.92,45.52,1021.99,2023.99,3330.02,3015.02,3460.82,600.08,595.85,4.98,0000 0000 0000 0000 000000
2018-05-17 15:04:27,0.02,0.25,0.00,24.68,27.89,30.93,13.88,45.42,1021.99,2024.01,3329.70,3015.00,3460.22,599.98,595.77,5.03,0000 0000 0000 0000 000000
2018-05-17 15:09:29,0.02,0.25,0.00,24.63,27.87,30.86,13.91,45.55,1021.99,2024.02,3329.02,3014.73,3459.99,599.67,595.64,5.08,0000 0000 0000 0000 000000
2018-05-17 15:14:30,0.04,0.25,0.00,24.63,27.85,30.89,13.87,45.47,1021.99,2024.11,3328.65,3014.19,3459.71,599.90,595.76,5.13,0000 0000 0000 0000 000000
2018-05-17 15:19:32,0.03,0.25,0.00,24.60,27.82,30.86,13.82,45.41,1021.99,2024.14,3328.00,3014.00,3459.03,599.76,595.77,5.18,0000 0000 0000 0000 000000
2018-05-17 15:24:33,0.05,0.26,0.00,24.56,27.80,30.86,13.94,45.47,1021.99,2024.55,3327.30,3013.95,3458.89,600.01,595.99,5.23,0000 0000 0000 0000 000000
2018-05-17 15:29:34,0.04,0.26,0.00,24.55,27.78,30.81,13.90,45.38,1021.99,2024.74,3326.96,3013.30,3458.11,600.16,596.41,5.28,0000 0000 0000 0000 000000
2018-05-17 15:34:36,0.03,0.26,0.00,24.55,27.76,30.80,13.88,45.50,1021.99,2024.92,3326.22,3013.01,3457.98,599.95,596.02,5.33,0000 0000 0000 0000 000000